AirNav   Everest Fuels
 
 412 users online  

27SC Upair Heliport
Lugoff, South Carolina, USA

GOING TO LUGOFF?


FAA INFORMATION EFFECTIVE 21 MAY 2020

Location

FAA Identifier: 27SC
Lat/Long: 34-13-46.0000N 080-40-56.0000W
34-13.766667N 080-40.933333W
34.2294444,-80.6822222
(estimated)
Elevation: 251 ft. / 77 m (estimated)
From city: 1 mile SE of LUGOFF, SC
Time zone: UTC -4 (UTC -5 during Standard Time)
Zip code: 29078

Heliport Operations

Heliport use: Private use. Permission required prior to landing
Activation date: 06/1989
Control tower: no
ARTCC: JACKSONVILLE CENTER
FSS: ANDERSON FLIGHT SERVICE STATION
Attendance: UNATNDD
Wind indicator: yes
Segmented circle: no

Heliport Communications

WX AWOS-3 at CDN (7 nm NE): 119.975 (803-424-1979)

Nearby radio navigation aids

VOR radial/distance  VOR name  Freq  Var
MMTr026/19.3MC ENTIRE VORTAC113.2008W
CAEr042/29.0COLUMBIA VORTAC114.7002W
CTFr222/32.3CHESTERFIELD VOR/DME108.2003W

 
NDB name  Hdg/Dist  Freq  Var  ID
SUMTER319/21.525207WSMS ... -- ...
HARTSVILLE256/29.834107WHVS .... ...- ...
LANCASTER171/30.940007WLKR .-.. -.- .-.

Heliport Services

Runway Information

Helipad H1

Dimensions: 40 x 40 ft. / 12 x 12 m
Surface: concrete
Latitude: 34-13.766667N
Longitude: 080-40.933333W
Elevation: 251.0 ft.
Traffic pattern: leftleft

Heliport Ownership and Management from official FAA records

Ownership: Privately-owned
Owner: JOE UPCHURCH
852 RIDGEWAY ROAD
LUGOFF, SC 29078
Phone 803-427-3794
Manager: JOE UPCHURCH
852 RIDGEWAY ROAD
LUGOFF, SC 29078
Phone 803-427-3794

Heliport Operational Statistics

Aircraft based on the field: 1
Helicopters: 1
    

Additional Remarks

149 FT ANTENNA 2300 FT N; 350 FT ANTENNA 1740 FT E; AND 85 FT ANTENNA 1500 FT E OF PAD.
FOR CD CTC SHAW APCH AT 803-895-4884, WHEN APCH CLSD CTC JACKSONVILLE ARTCC AT 904-845-1592.

Instrument Procedures

There are no published instrument procedures at 27SC.

Some nearby airports with instrument procedures:

KCDN - Woodward Field Airport (7 nm NE)
KSSC - Shaw Air Force Base (19 nm SE)
KMMT - Mc Entire Joint National Guard Base (19 nm S)
KSMS - Sumter Airport (21 nm SE)
KFDW - Fairfield County Airport (22 nm W)
 
Loc | Ops | Rwys | IFR | FBO | Links
Com | Nav | Svcs | Stats | Notes
Area around 27SC (Upair Heliport)
 
Road maps at: MapQuest Bing Google
 
Aerial photo
No photo
 
Sectional chart

 
Airport distance calculator
Flying to Upair Heliport? Find the distance to fly.

From to 27SC

Sunrise and sunset
Times for 31-May-2020
 Local
(UTC-4)
 Zulu
(UTC)
Morning civil twilight05:4409:44
Sunrise06:1310:13
Sunset20:2800:28
Evening civil twilight20:5700:57

Current date and time
Zulu (UTC)  31-May-2020 10:53:37
Local (UTC-4)  31-May-2020 06:53:37
 
METAR
KCDN 
7nm NE 
311035Z AUTO 03009KT 10SM CLR 21/16 A3002 RMK AO2
KSSC 
19nm SE 
310956Z AUTO 01006KT 10SM CLR 22/20 A2998 RMK AO2 SLP151 T02220203 $
KMMT 
19nm S 
310956Z AUTO 02005KT 10SM CLR 21/20 A2998 RMK AO2 SLP153 T02140200 $
TAF
KSSC 
19nm SE 
310200Z 3102/3123 VRB06KT 9999 SCT030 QNH2994INS BECMG 3108/3109 03006KT 9999 BKN050 QNH3004INS TX25/3102Z TN20/3111Z LAST NO AMDS AFT 3102 NEXT 3117
KMMT 
19nm S 
310700Z 3107/0113 VRB06KT 9999 SCT025 BKN060 QNH2995INS BECMG 3114/3115 02010G15KT 9999 FEW040 QNH3007INS BECMG 0100/0101 VRB06KT 9999 FEW025 BKN055 QNH3010INS TX29/3118Z TN17/3109Z
KCUB 
22nm SW 
310831Z 3109/0106 00000KT P6SM FEW060 FM311500 04006KT P6SM SCT050 FM010000 00000KT P6SM SKC
NOTAMs
Click for the latest NOTAMs
NOTAMs are issued by the DoD/FAA and will open in a separate window not controlled by AirNav.

 

 
 

Would you like to see your business listed on this page?

 If your business provides an interesting product or service to pilots, flight crews, aircraft, or users of the Upair Heliport, you should consider listing it here.  To start the listing process, click on the button below
 
Add a business
 

Other Pages about Upair Heliport

Update a link
 
Copyright © AirNav, LLC. All rights reserved. Privacy Policy  Contact